Weather History for CYQG - March, 2013

Change the Weather History Date:

Friday, March 1, 2013

  Actual Average Record
Temperature  
Mean Temperature 27 °F -  
Max Temperature 28 °F 43 °F 62 °F (1997)
Min Temperature 26 °F 27 °F 5 °F (2015)
Degree Days  
Heating Degree Days 38    
Moisture  
Dew Point 20 °F    
Average Humidity 72    
Maximum Humidity 80    
Minimum Humidity 59    
Precipitation  
Precipitation 0.00 in 0.09 in - ()
Sea Level Pressure  
Sea Level Pressure 30.04 in    
Wind  
Wind Speed 12 mph ()    
Max Wind Speed 17 mph    
Max Gust Speed 24 mph    
Visibility 14.8 miles    
Events Snow    
Averages and records for this station are not official NWS values.
T = Trace of Precipitation, MM = Missing Value Source: Averaged Metar Reports

Daily Weather History Graph

Daily Weather History Graph

Search for Another Location

Airport or City:

Trip Planner

Search our weather history database for the weather conditions in past years. The results will help you decide how hot, cold, wet, or windy it might be!

Date:

Astronomy

Mar. 01, 2013 Rise Set
Actual Time 7:06 AM EST 6:22 PM EST
Civil Twilight 6:38 AM EST 6:50 PM EST
Nautical Twilight 6:06 AM EST 7:22 PM EST
Astronomical Twilight 5:33 AM EST 7:55 PM EST
Moon 11:00 PM EST (3/1) 8:47 AM EST (3/1)
Length of Visible Light 12h 11m
Length of Day
11h 15m
Waning Gibbous, 83% of the Moon is Illuminated
Mar 1
Waning Gibbous
Mar 4
Last Quarter
Mar 11
New
Mar 19
First Quarter
Mar 27
Full

Hourly Weather History & Observations

Time (EST) Temp. Windchill Dew Point Humidity Pressure Visibility Wind Dir Wind Speed Gust Speed Precip Events Conditions
12:00 AM 30.2 °F 21.9 °F 24.8 °F 80% 29.96 in 15.0 mi NNW 9.2 mph 20.7 mph N/A Snow Light Snow Showers
1:00 AM 30 °F - 23 °F 67% 29.96 in 15 mi North 12.7 mph - - Snow Light Snow Showers
1:00 AM 30.2 °F 20.2 °F 23.0 °F 75% 29.96 in 15.0 mi North 12.7 mph 18.4 mph N/A Snow Light Snow Showers
2:00 AM 30.2 °F 18.9 °F 24.8 °F 80% 29.97 in 15.0 mi North 16.1 mph - N/A Snow Light Snow Showers
3:00 AM 30.2 °F 19.8 °F 23.0 °F 75% 29.97 in 15.0 mi North 13.8 mph - N/A Snow Light Snow Showers
4:00 AM 28.4 °F 18.0 °F 23.0 °F 80% 29.98 in 15.0 mi North 12.7 mph - N/A Snow Light Snow Showers
5:00 AM 28.4 °F 18.5 °F 21.2 °F 74% 29.99 in 15.0 mi North 11.5 mph - N/A Snow Light Snow Showers
6:00 AM 28.4 °F 17.5 °F 19.4 °F 69% 29.99 in 15.0 mi North 13.8 mph - N/A Snow Light Snow Showers
7:00 AM 28 °F - 20 °F 61% 30.01 in 15 mi North 12.7 mph - - Snow Light Snow Showers
7:00 AM 28.4 °F 18.0 °F 19.4 °F 69% 30.01 in 15.0 mi North 12.7 mph 18.4 mph N/A Snow Light Snow Showers
7:35 AM - - - N/A% - 15.0 mi North 15.0 mph - N/A   Overcast
8:00 AM 26.6 °F 14.3 °F 19.4 °F 74% 30.04 in 15.0 mi North 16.1 mph 24.2 mph N/A   Overcast
8:08 AM - - - N/A% - 15.0 mi North 15.0 mph 23.0 mph N/A   Light Freezing Drizzle
8:26 AM - - - N/A% - 15.0 mi North 11.5 mph - N/A   Unknown
9:00 AM 26.6 °F 14.3 °F 19.4 °F 74% 30.05 in 15.0 mi North 16.1 mph 21.9 mph N/A Snow Light Snow Showers
10:00 AM 26.6 °F 14.7 °F 19.4 °F 74% 30.07 in 15.0 mi North 15.0 mph 20.7 mph N/A Snow Light Snow Showers
11:00 AM 26.6 °F 15.7 °F 17.6 °F 69% 30.07 in 15.0 mi North 12.7 mph 20.7 mph N/A Snow Light Snow Showers
12:00 PM 26.6 °F 13.8 °F 17.6 °F 69% 30.07 in 15.0 mi North 17.3 mph - N/A Snow Light Snow Showers
1:00 PM 27 °F - 18 °F 59% 30.07 in 15 mi WSW 15.0 mph - - Snow Light Snow Showers
1:00 PM 26.6 °F 13.8 °F 19.4 °F 74% 30.07 in 15.0 mi North 17.3 mph - N/A Snow Light Snow Showers
2:00 PM 28.4 °F 18.0 °F 19.4 °F 69% 30.06 in 15.0 mi North 12.7 mph - N/A Snow Light Snow Showers
3:00 PM 28.4 °F 16.6 °F 19.4 °F 69% 30.06 in 15.0 mi North 16.1 mph - N/A Snow Light Snow Showers
4:00 PM 28.4 °F 18.0 °F 19.4 °F 69% 30.06 in 15.0 mi North 12.7 mph - N/A   Overcast
5:00 PM 26.6 °F 14.3 °F 19.4 °F 74% 30.07 in 15.0 mi North 16.1 mph - N/A   Overcast
6:00 PM 26.6 °F 15.7 °F 19.4 °F 74% 30.09 in 15.0 mi North 12.7 mph - N/A   Overcast
7:00 PM 27 °F - 19 °F 62% 30.10 in 15 mi North 12.7 mph - - Snow Light Snow Showers
7:00 PM 26.6 °F 14.7 °F 19.4 °F 74% 30.10 in 15.0 mi North 15.0 mph - N/A Snow Light Snow Showers
8:00 PM 26.6 °F 15.7 °F 19.4 °F 74% 30.11 in 15.0 mi North 12.7 mph 20.7 mph N/A Snow Light Snow Showers
9:00 PM 26.6 °F 16.2 °F 19.4 °F 74% 30.11 in 12.0 mi North 11.5 mph 18.4 mph N/A Snow Light Snow Showers
10:00 PM 26.6 °F 14.7 °F 19.4 °F 74% 30.11 in 12.0 mi North 15.0 mph 21.9 mph N/A Snow Light Snow Showers
11:00 PM 26.6 °F 17.5 °F 19.4 °F 74% 30.10 in 15.0 mi NNW 9.2 mph 17.3 mph N/A Snow Light Snow Showers